Temp_Advection
nan nan nan nan nan nan nan nan nan nan nan nan nan nan nan nan nan nan nan nan nan nan nan nan nan nan nan nan nan nan nan nan nan nan nan nan nan nan nan nan nan nan nan nan
nan 0 1 0 -0 0 -0 -0 -0 0 -1 -0 1 0 0 1 0 0 0 0 0 1 1 1 1 0 0 1 2 1 1 1 1 1 1 0 0 1 1 0 0 0 1 nan
nan 1 1 -0 -1 -1 -0 -0 -0 -0 -1 -0 0 1 1 1 1 0 0 0 0 1 1 1 0 1 1 1 1 0 1 1 1 1 0 1 1 1 0 0 0 0 0 nan
nan 0 -1 -1 -0 -0 0 -0 -0 -0 -0 0 1 1 1 1 0 0 -0 0 0 0 0 0 0 0 0 0 0 1 1 1 0 1 1 1 0 0 0 0 0 0 0 nan
nan -1 -0 0 -0 0 0 -1 -1 0 0 1 1 1 0 0 0 0 0 0 0 0 0 0 0 0 0 0 -0 0 0 1 1 1 0 0 0 0 0 0 0 0 0 nan
nan -0 -0 -1 -0 0 0 -1 -1 1 1 1 0 -1 0 -1 0 -0 -0 0 0 0 0 0 0 1 1 1 1 1 1 1 0 0 0 0 0 0 0 0 0 0 0 nan
nan -0 -0 0 1 0 -0 -1 0 1 1 1 0 0 1 0 0 0 0 0 0 0 0 1 0 0 1 1 1 1 1 0 -0 -0 0 0 0 0 0 0 -0 -0 -0 nan
nan -0 -1 0 -0 -1 0 0 0 0 1 1 2 1 1 1 0 0 0 0 0 0 0 0 0 0 -0 0 1 1 0 0 0 0 0 0 0 0 0 0 -0 -0 -0 nan
nan -1 -0 -1 -1 2 0 0 1 1 1 1 0 0 0 0 0 0 0 0 0 0 0 0 1 1 0 -0 0 0 0 0 0 0 0 0 0 0 0 0 0 0 0 nan
nan -0 1 0 2 1 0 0 0 0 1 1 -0 -0 -0 0 0 0 0 0 0 0 0 0 0 0 0 0 -0 0 0 0 0 0 0 0 0 0 0 0 0 0 0 nan
nan 1 1 -0 -0 -1 -0 -1 0 1 1 1 1 -0 0 0 0 0 0 0 0 0 -0 0 0 -0 -0 0 0 0 0 0 0 0 0 0 0 0 0 -0 -0 0 0 nan
nan 0 -0 -0 0 1 0 0 1 2 1 1 1 1 0 0 0 0 1 1 1 1 -0 -0 0 0 0 0 0 0 0 0 0 0 0 0 0 -0 -1 -0 -0 -0 0 nan
nan 1 0 -1 0 1 1 1 1 2 2 1 1 1 1 1 1 1 0 1 1 0 0 0 0 0 0 0 0 0 0 0 0 0 0 0 0 0 0 -1 -1 -1 -0 nan
nan 0 0 0 0 0 0 1 2 2 2 2 1 1 1 1 0 1 1 1 1 1 1 1 0 0 0 0 0 0 0 0 0 0 0 0 0 0 0 0 -0 -0 -1 nan
nan 0 0 1 1 1 1 1 1 1 1 1 1 1 1 1 1 1 1 1 1 1 1 1 1 0 0 0 0 0 0 0 0 -0 -0 0 0 0 0 -0 -0 -0 0 nan
nan 1 1 1 1 1 1 0 1 0 0 1 1 1 0 -1 -0 0 0 1 1 0 0 0 0 0 0 0 0 0 -0 0 -0 -0 -0 0 0 0 0 -0 -0 -0 -0 nan
nan 0 0 0 0 1 1 0 0 0 0 1 1 2 2 0 -1 -1 -0 0 0 0 -0 0 0 0 0 0 0 0 0 -0 0 -0 -0 -0 0 1 0 -0 -0 -0 -0 nan
nan 0 0 0 -0 0 1 1 1 0 0 0 1 0 1 1 0 0 -0 0 0 0 0 0 0 0 0 0 0 0 0 0 -0 -0 -0 -0 0 1 1 0 -0 -0 -0 nan
nan 0 0 0 0 -0 -0 1 1 1 0 -0 -0 -0 -0 0 -0 0 0 -0 0 0 0 0 0 0 -0 -0 -0 -0 -0 -0 -0 -0 0 0 -0 0 1 0 0 -0 -0 nan
nan 1 1 0 1 1 -0 0 0 1 1 1 0 0 0 0 0 0 0 0 0 0 0 0 0 -0 -0 -0 -0 -0 -0 -0 0 -0 -0 -0 -0 -0 0 -0 -0 0 -0 nan
nan 1 1 0 0 1 1 0 0 0 1 0 -0 -0 0 0 0 0 0 0 0 0 0 -0 -0 -0 -0 -0 -0 -0 -0 -0 -0 -0 -0 -0 0 0 -0 -0 -1 -0 0 nan
nan 0 0 1 0 0 1 1 0 -0 -0 1 1 0 -0 -0 0 0 0 0 0 0 -0 -0 -0 -0 -0 -0 -0 -0 -0 -0 -1 -0 -0 -0 -0 -0 -0 -0 -0 -1 -0 nan
nan 1 1 1 -0 -0 0 0 0 0 0 -0 -0 0 0 0 -0 -0 -0 -0 -0 -0 -0 -0 -0 -0 -0 -0 -0 -0 -0 -0 -0 -0 -0 -0 -0 -0 -0 -0 -1 -1 -0 nan
nan 0 -0 0 0 0 -0 0 -0 -0 0 0 0 -0 -0 -0 -0 -0 -0 -0 -0 -0 -0 -0 -0 -0 -0 -0 -0 0 0 -0 -0 -0 -0 0 0 0 -0 -0 -1 -1 -1 nan
nan -0 0 -0 -1 -1 0 0 0 0 0 0 -0 -0 -0 -0 -0 -0 -0 -0 0 0 -0 -0 -0 -0 -0 -0 -0 -0 0 -0 -0 -0 0 0 0 0 0 -0 -1 -1 -1 nan
nan -0 0 -0 -0 -0 0 0 -0 -0 -0 -0 -0 -0 -0 -0 -0 -0 -0 0 0 0 0 -0 -0 -0 0 0 -0 -0 -0 -0 -0 -0 0 0 0 0 -0 -1 -0 -0 -0 nan
nan nan nan nan nan nan nan nan nan nan nan nan nan nan nan nan nan nan nan nan nan nan nan nan nan nan nan nan nan nan nan nan nan nan nan nan nan nan nan nan nan nan nan nan
Wind_Speed
17 15 12 16 14 16 17 18 17 14 17 13 14 15 15 8 5 6 9 8 9 12 13 13 14 15 18 21 23 21 20 22 24 19 16 17 5 3 12 16 10 14 8 13
13 11 12 15 16 15 17 16 14 17 18 14 18 13 12 11 8 7 5 7 8 10 13 14 15 16 19 21 20 18 17 14 17 18 18 16 9 12 12 10 11 9 13 14
12 7 6 8 15 15 15 13 15 16 17 14 14 14 17 11 8 7 5 4 4 8 12 13 14 16 17 16 16 16 15 17 18 18 19 12 13 12 11 5 10 14 13 12
6 4 8 9 3 15 18 17 16 16 18 16 15 9 5 5 4 1 3 5 7 8 10 11 13 14 15 16 17 18 19 19 20 18 16 14 11 6 5 10 12 9 9 10
5 10 10 5 5 9 11 16 15 15 18 17 8 7 8 6 7 6 7 9 10 11 13 14 14 15 16 17 17 19 20 20 18 17 15 11 7 9 8 7 7 9 10 11
4 6 8 5 12 13 5 14 11 12 12 8 11 7 4 12 12 11 11 11 13 15 16 17 18 18 18 20 21 21 21 21 18 14 8 5 6 6 6 7 8 8 10 12
10 5 5 4 7 13 9 13 2 9 9 13 12 1 15 17 15 13 13 14 16 16 17 18 20 21 23 23 24 24 23 20 14 8 7 7 6 6 7 7 10 14 20 22
5 4 9 12 11 10 13 4 7 9 11 16 12 11 15 15 16 15 16 17 16 18 19 18 20 22 23 22 23 22 19 14 11 7 6 5 5 7 8 11 15 19 21 21
8 6 3 25 16 23 7 9 9 12 12 17 19 17 19 18 18 17 18 18 19 20 22 21 19 19 21 19 17 16 14 10 7 6 5 6 7 10 12 13 15 15 15 14
5 9 11 12 19 9 9 7 4 7 13 20 23 22 22 21 20 20 20 20 21 23 23 23 20 19 17 17 15 10 8 8 7 6 6 8 10 11 11 11 12 12 13 14
12 12 7 11 18 18 16 13 11 11 14 20 23 24 24 24 23 22 22 22 21 22 22 22 21 20 17 14 11 10 8 7 6 6 7 8 9 8 8 10 12 12 12 12
7 17 12 12 9 18 19 19 16 17 16 19 23 26 26 25 24 25 25 24 23 22 23 22 20 16 13 12 10 8 7 6 6 7 7 6 6 7 10 9 11 12 12 15
6 6 7 9 4 11 13 12 14 18 19 23 21 24 25 26 25 26 25 24 23 24 23 21 17 15 13 10 8 6 6 6 6 5 5 6 6 5 4 10 13 13 13 15
15 10 7 9 3 9 10 10 13 15 17 21 22 23 24 24 25 23 22 21 22 23 21 18 16 13 10 8 6 4 5 5 4 5 6 6 6 7 7 8 8 8 14 17
16 15 11 11 8 7 7 11 15 15 17 20 21 24 25 26 25 23 21 21 20 19 17 15 13 10 8 5 3 3 4 5 6 7 7 8 8 9 8 9 10 10 12 13
9 8 9 8 9 6 12 13 16 18 18 20 21 22 24 25 24 23 22 22 19 15 12 10 7 5 4 2 2 3 5 6 7 8 9 9 10 10 9 10 11 11 12 13
5 4 7 7 6 10 12 12 12 17 21 21 25 28 31 31 30 28 24 17 13 12 11 5 3 2 2 2 3 5 6 8 9 9 10 11 12 12 11 12 11 12 12 14
6 4 3 6 13 14 14 16 18 21 24 26 29 31 30 29 27 23 20 16 14 7 5 4 5 4 4 4 6 7 8 9 10 11 12 13 13 14 13 13 13 13 14 15
4 6 8 11 12 14 15 16 18 19 20 23 27 28 25 23 20 18 18 13 8 6 6 5 4 4 6 7 8 9 10 11 12 13 13 14 14 14 14 14 15 15 16 16
14 14 16 17 16 15 18 19 22 25 28 29 29 27 23 19 18 13 9 7 7 6 4 3 4 6 8 9 9 11 11 12 12 13 14 14 14 15 14 14 16 15 15 15
19 19 20 20 22 22 23 26 30 32 30 25 23 23 20 16 12 9 7 6 4 2 2 4 6 8 10 11 11 12 13 13 14 13 13 14 14 12 12 13 14 15 16 17
21 24 26 27 28 31 29 29 29 28 26 21 16 14 12 11 9 6 3 2 2 3 5 7 9 10 11 12 13 13 13 13 13 13 12 12 12 12 12 14 15 16 18 18
26 27 30 33 34 33 29 26 23 20 18 16 14 12 10 8 5 3 0 3 4 6 7 9 11 13 14 15 15 15 15 15 13 12 12 12 12 13 14 15 17 19 18 19
31 30 31 30 29 27 26 20 19 18 16 15 12 8 4 2 1 2 3 5 7 9 9 13 14 15 15 17 17 16 14 11 12 12 12 14 13 13 14 16 19 19 20 20
29 27 26 23 21 20 19 17 17 14 9 7 5 4 3 2 3 5 7 8 8 9 11 14 15 16 17 16 16 15 14 12 13 16 14 13 14 15 16 17 19 20 22 22
24 22 21 20 18 16 14 12 12 10 7 6 5 6 6 7 7 7 7 8 11 12 14 16 17 18 17 14 14 14 14 13 14 13 16 16 16 17 19 20 21 23 23 23
25 22 20 19 16 14 12 10 9 8 7 6 5 6 6 7 8 8 9 11 14 15 15 15 16 16 17 17 15 14 14 13 15 19 20 20 20 20 21 22 23 23 23 22
Wind_Direction
233 245 249 239 242 222 227 239 246 251 262 272 278 281 259 250 228 236 258 256 232 214 204 192 182 181 180 199 208 215 200 196 203 211 200 178 177 215 231 226 218 286 249 247
216 222 229 244 247 249 230 244 257 260 269 282 278 277 250 249 260 269 271 269 247 209 195 184 176 171 187 193 197 190 190 200 200 189 176 181 211 226 200 219 263 230 238 270
234 215 221 254 234 224 226 227 236 257 272 288 274 263 252 254 262 281 289 276 220 194 182 176 175 185 180 181 184 178 176 172 171 171 179 190 173 188 207 223 238 269 266 267
222 177 223 247 238 232 237 241 237 257 272 273 277 284 221 235 230 166 104 113 126 140 143 147 152 153 156 152 155 160 158 162 169 179 180 169 176 185 207 265 267 254 266 268
170 215 256 227 191 194 197 243 246 259 274 269 239 227 227 193 167 136 127 119 119 128 132 134 138 141 148 151 152 153 158 165 168 165 166 160 182 275 253 252 258 270 275 276
163 218 224 230 210 202 198 262 265 248 262 222 180 221 192 167 159 147 137 134 135 135 137 141 141 144 146 147 151 158 162 158 154 157 177 236 228 232 245 263 271 273 280 287
214 238 246 190 156 162 210 254 191 211 230 194 204 301 143 161 152 147 142 137 134 132 134 137 138 141 141 146 152 154 156 159 161 185 201 233 243 257 269 277 284 291 294 296
203 206 238 152 143 204 228 209 199 202 202 193 186 162 153 152 150 146 143 137 134 129 128 130 136 141 136 140 150 156 161 163 183 219 240 231 250 274 288 292 295 297 300 303
215 221 163 185 221 223 229 236 204 201 195 182 172 167 161 156 153 149 145 141 138 135 130 129 135 145 136 138 145 158 169 185 210 204 225 253 271 283 291 295 299 304 311 315
222 239 233 225 227 239 227 224 272 242 199 190 177 170 163 159 157 154 150 149 147 143 139 137 140 140 141 150 159 176 185 185 199 223 254 275 285 291 295 296 302 311 317 320
243 264 275 244 240 231 225 239 248 254 210 192 181 172 169 164 163 160 154 150 149 146 142 141 149 156 163 170 175 177 189 206 227 256 272 285 288 293 299 302 310 315 316 323
221 233 226 251 246 239 223 241 239 230 202 190 186 178 170 164 164 161 157 156 153 151 154 156 162 165 167 168 174 187 202 227 253 270 283 294 303 311 307 308 318 322 317 317
231 209 223 265 252 260 247 252 228 206 198 186 178 174 168 164 164 161 157 155 155 156 161 162 164 165 168 177 185 199 229 250 270 288 297 300 306 307 298 310 320 316 314 316
233 239 239 252 248 262 264 243 211 188 181 175 172 164 160 156 154 153 153 153 159 163 162 161 162 167 170 181 199 232 257 278 288 296 300 305 305 307 310 304 307 302 307 315
230 232 241 261 251 220 206 192 165 162 160 154 156 155 154 150 149 148 147 152 154 151 150 158 165 167 176 191 219 258 279 294 301 304 305 307 309 311 305 306 307 305 310 314
200 202 221 228 192 179 167 155 157 150 147 147 147 147 146 144 140 141 143 144 150 152 163 173 166 172 186 208 253 285 296 301 302 304 307 308 308 309 303 307 309 308 312 312
175 221 208 194 153 162 143 147 161 154 154 155 153 161 168 163 151 148 149 149 141 156 157 167 201 219 242 269 280 288 295 303 303 305 304 305 307 308 305 306 309 308 309 309
233 250 212 174 151 142 138 160 165 165 164 163 167 164 154 146 146 148 141 139 150 153 191 224 241 258 285 293 296 299 302 303 304 305 306 305 306 305 305 306 309 309 310 310
137 123 130 137 149 149 144 152 157 161 155 155 153 145 146 141 135 136 139 142 163 195 215 225 257 288 301 305 304 305 306 306 306 305 304 305 306 307 306 305 307 310 311 313
107 116 125 128 138 149 145 144 148 144 144 147 140 133 129 127 133 143 155 165 195 211 209 263 297 305 307 313 313 311 309 306 304 304 305 305 305 307 306 309 310 311 312 312
107 112 116 126 129 131 133 137 137 131 130 126 125 125 136 147 148 139 166 188 191 219 281 307 312 313 315 319 318 315 312 311 309 308 306 306 307 307 308 309 310 311 311 310
116 119 121 124 124 121 124 127 124 121 123 128 134 138 138 139 148 159 175 221 236 300 311 317 319 321 323 325 321 319 317 313 312 311 310 308 305 306 307 309 311 311 311 311
116 119 121 122 119 116 118 118 119 122 126 125 120 123 137 134 128 117 329 295 309 315 318 316 320 323 325 325 321 318 315 314 312 309 306 304 304 303 305 308 308 311 311 311
111 113 111 112 116 117 112 113 115 111 114 120 125 123 124 104 53 3 337 322 317 314 309 313 317 319 319 319 318 316 315 310 309 309 306 304 304 302 304 305 308 310 311 312
104 105 107 109 106 105 112 114 117 115 116 110 98 77 44 7 326 316 309 308 307 308 308 312 314 315 316 316 314 312 311 309 304 307 306 301 302 303 302 303 305 309 311 312
102 100 101 103 103 105 105 107 102 96 83 66 38 16 355 339 331 323 312 303 303 308 307 311 314 317 317 315 312 311 309 307 308 307 308 309 305 303 304 305 308 310 312 312
99 97 96 95 96 98 97 92 84 70 57 46 25 355 345 334 324 313 306 302 306 310 314 316 318 316 315 314 313 310 309 308 306 309 312 311 310 308 307 308 310 311 311 312
Height
1444 1444 1446 1449 1449 1452 1458 1456 1459 1454 1450 1445 1446 1445 1445 1448 1449 1450 1452 1452 1454 1456 1458 1461 1464 1467 1470 1470 1474 1477 1481 1485 1487 1491 1495 1499 1507 1509 1512 1513 1519 1519 1522 1522
1446 1444 1448 1449 1445 1446 1449 1448 1446 1447 1445 1442 1443 1446 1446 1447 1448 1448 1449 1449 1450 1451 1454 1456 1459 1462 1462 1466 1471 1474 1477 1482 1486 1490 1493 1498 1501 1503 1508 1513 1515 1518 1519 1518
1448 1447 1451 1461 1448 1443 1443 1444 1444 1444 1437 1436 1438 1441 1442 1444 1446 1446 1446 1446 1446 1448 1450 1452 1455 1457 1460 1463 1467 1471 1475 1479 1485 1490 1494 1497 1500 1503 1507 1510 1514 1514 1513 1513
1448 1464 1464 1434 1434 1433 1435 1434 1434 1435 1434 1434 1435 1439 1441 1443 1444 1445 1446 1445 1446 1447 1450 1452 1454 1458 1460 1464 1467 1470 1474 1480 1485 1489 1493 1497 1500 1503 1507 1508 1508 1508 1508 1508
1452 1446 1431 1433 1438 1435 1435 1432 1427 1428 1428 1429 1434 1440 1439 1439 1441 1443 1445 1445 1446 1447 1449 1452 1455 1458 1461 1463 1466 1471 1475 1480 1485 1489 1492 1496 1500 1501 1503 1503 1504 1504 1504 1503
1450 1443 1446 1423 1421 1426 1429 1430 1422 1424 1425 1427 1436 1434 1425 1435 1438 1441 1443 1445 1445 1446 1448 1450 1453 1457 1461 1465 1469 1473 1477 1481 1486 1490 1493 1495 1497 1498 1499 1499 1499 1499 1499 1498
1435 1437 1421 1418 1422 1426 1436 1424 1418 1421 1422 1426 1429 1427 1430 1433 1436 1440 1442 1445 1447 1449 1450 1453 1456 1459 1462 1465 1470 1474 1478 1482 1486 1488 1491 1492 1493 1494 1494 1494 1494 1493 1491 1490
1432 1439 1435 1418 1425 1421 1410 1413 1415 1417 1419 1421 1426 1428 1431 1435 1437 1440 1443 1445 1449 1451 1455 1458 1460 1463 1465 1469 1472 1475 1479 1483 1485 1486 1487 1488 1489 1490 1489 1489 1487 1485 1483 1482
1416 1408 1404 1407 1405 1407 1408 1409 1411 1413 1415 1418 1422 1426 1429 1433 1436 1439 1443 1446 1448 1451 1455 1459 1463 1465 1467 1471 1474 1477 1479 1480 1481 1482 1484 1485 1485 1484 1484 1482 1480 1478 1476 1475
1412 1399 1403 1405 1405 1405 1407 1409 1411 1413 1413 1414 1416 1421 1426 1431 1436 1439 1442 1445 1448 1450 1453 1456 1460 1464 1468 1470 1474 1477 1478 1478 1479 1480 1480 1480 1480 1479 1478 1476 1474 1473 1471 1468
1394 1398 1403 1399 1400 1399 1403 1404 1404 1409 1412 1412 1414 1418 1422 1427 1433 1438 1440 1445 1449 1452 1454 1456 1459 1462 1465 1468 1470 1473 1475 1477 1477 1477 1476 1476 1475 1474 1473 1471 1469 1468 1465 1463
1393 1390 1393 1391 1393 1395 1397 1397 1398 1401 1406 1411 1412 1414 1420 1425 1430 1434 1438 1442 1446 1449 1451 1455 1459 1462 1464 1466 1469 1471 1472 1473 1474 1473 1473 1472 1471 1470 1468 1467 1465 1462 1460 1458
1386 1388 1389 1391 1388 1394 1395 1396 1394 1397 1400 1405 1411 1414 1419 1423 1428 1433 1437 1441 1445 1447 1450 1454 1457 1460 1463 1465 1467 1468 1469 1470 1470 1469 1469 1468 1468 1467 1467 1463 1461 1459 1456 1453
1384 1385 1387 1387 1387 1388 1389 1390 1393 1395 1399 1403 1409 1414 1419 1425 1430 1437 1441 1444 1446 1448 1450 1453 1457 1459 1462 1464 1465 1467 1468 1467 1467 1466 1465 1464 1463 1462 1461 1460 1458 1457 1452 1448
1381 1381 1382 1384 1387 1386 1386 1391 1391 1397 1400 1404 1410 1414 1419 1425 1432 1437 1440 1442 1447 1452 1455 1456 1456 1458 1461 1462 1463 1464 1465 1464 1464 1463 1462 1460 1459 1457 1456 1454 1453 1451 1448 1444
1380 1379 1381 1385 1381 1383 1385 1389 1392 1396 1402 1407 1412 1418 1422 1426 1430 1435 1439 1443 1447 1450 1457 1461 1460 1460 1460 1460 1460 1461 1461 1461 1461 1460 1458 1456 1454 1453 1452 1449 1448 1446 1443 1439
1380 1382 1382 1384 1382 1387 1385 1390 1397 1399 1403 1407 1412 1416 1417 1419 1424 1432 1439 1444 1448 1453 1457 1460 1461 1461 1460 1459 1459 1458 1458 1457 1457 1456 1454 1452 1449 1448 1446 1444 1442 1439 1437 1434
1377 1378 1380 1380 1383 1387 1388 1393 1396 1402 1403 1407 1412 1414 1420 1426 1429 1436 1439 1445 1450 1455 1458 1459 1460 1460 1459 1458 1457 1456 1455 1454 1453 1451 1449 1447 1444 1442 1441 1438 1436 1433 1431 1428
1378 1377 1380 1380 1383 1387 1392 1397 1400 1404 1406 1411 1419 1422 1428 1433 1437 1441 1444 1447 1451 1453 1455 1456 1456 1457 1457 1455 1454 1452 1451 1450 1448 1446 1444 1442 1439 1437 1435 1432 1430 1427 1424 1422
1378 1379 1380 1381 1387 1392 1396 1401 1404 1407 1411 1417 1422 1426 1431 1438 1443 1446 1447 1449 1451 1452 1453 1453 1454 1454 1453 1452 1450 1449 1447 1446 1444 1442 1439 1437 1434 1432 1430 1427 1424 1422 1419 1417
1382 1383 1385 1390 1395 1399 1402 1407 1411 1415 1419 1424 1428 1432 1436 1440 1443 1446 1449 1451 1451 1451 1452 1452 1451 1451 1450 1448 1447 1445 1443 1441 1439 1436 1434 1431 1429 1428 1425 1423 1420 1417 1414 1411
1389 1391 1394 1398 1401 1405 1411 1415 1418 1421 1426 1430 1434 1437 1440 1443 1445 1448 1449 1450 1450 1450 1450 1450 1450 1449 1447 1445 1443 1441 1439 1437 1434 1432 1430 1428 1425 1423 1421 1418 1415 1411 1409 1406
1397 1400 1403 1406 1408 1412 1417 1422 1426 1429 1432 1435 1438 1441 1445 1446 1448 1449 1450 1449 1449 1449 1449 1449 1447 1446 1444 1442 1440 1437 1435 1432 1430 1428 1426 1423 1421 1418 1415 1413 1409 1406 1404 1401
1405 1409 1412 1415 1418 1421 1424 1430 1432 1434 1437 1440 1443 1445 1447 1448 1448 1449 1449 1448 1449 1448 1448 1446 1444 1442 1441 1438 1436 1433 1431 1429 1427 1425 1422 1418 1416 1414 1411 1407 1404 1401 1399 1396
1414 1417 1421 1425 1428 1430 1432 1436 1438 1440 1442 1443 1444 1446 1447 1448 1448 1448 1447 1447 1446 1446 1444 1442 1441 1439 1437 1434 1432 1429 1427 1425 1423 1419 1417 1414 1411 1409 1406 1403 1399 1396 1393 1390
1422 1426 1428 1431 1434 1437 1439 1441 1441 1443 1444 1444 1445 1447 1447 1447 1447 1446 1446 1445 1444 1442 1441 1439 1437 1435 1433 1430 1428 1425 1422 1420 1417 1414 1411 1408 1406 1403 1400 1397 1393 1391 1388 1384
1429 1433 1434 1436 1439 1441 1442 1443 1443 1444 1445 1446 1447 1447 1447 1446 1445 1444 1443 1442 1440 1439 1437 1435 1433 1430 1428 1425 1423 1421 1418 1415 1412 1408 1405 1403 1400 1397 1394 1391 1388 1385 1382 1379